TimeEST,TemperatureF,Dew PointF,Humidity,Sea Level PressureIn,VisibilityMPH,Wind Direction,Wind SpeedMPH,Gust SpeedMPH,PrecipitationIn,Events,Conditions,WindDirDegrees,DateUTC
12:15 AM,42.8,35.6,76,30.29,10.0,NNE,10.4,16.1,N/A,,Overcast,20,2012-11-16 05:15:00
12:35 AM,42.8,33.8,70,30.28,10.0,North,11.5,-,N/A,,Overcast,10,2012-11-16 05:35:00
12:55 AM,42.8,33.8,70,30.28,10.0,NNE,10.4,-,N/A,,Overcast,30,2012-11-16 05:55:00
1:15 AM,42.8,33.8,70,30.27,10.0,NNE,11.5,16.1,N/A,,Overcast,30,2012-11-16 06:15:00
1:35 AM,44.6,33.8,66,30.27,10.0,NNE,8.1,-,N/A,,Overcast,20,2012-11-16 06:35:00
1:55 AM,44.6,33.8,66,30.27,10.0,NE,11.5,-,N/A,,Overcast,40,2012-11-16 06:55:00
2:15 AM,44.6,35.6,71,30.28,10.0,NNE,11.5,-,N/A,,Overcast,30,2012-11-16 07:15:00
2:35 AM,44.6,33.8,66,30.27,10.0,NNE,9.2,-,N/A,,Overcast,30,2012-11-16 07:35:00
2:55 AM,44.6,33.8,66,30.27,10.0,NNE,10.4,-,N/A,,Overcast,30,2012-11-16 07:55:00
3:15 AM,44.6,33.8,66,30.27,10.0,NNE,10.4,-,N/A,,Overcast,30,2012-11-16 08:15:00
3:35 AM,44.6,33.8,66,30.27,10.0,North,9.2,-,N/A,,Overcast,10,2012-11-16 08:35:00
4:15 AM,42.8,33.8,70,30.26,10.0,NNE,10.4,16.1,N/A,,Overcast,20,2012-11-16 09:15:00
4:35 AM,44.6,33.8,66,30.27,10.0,North,11.5,-,N/A,,Overcast,10,2012-11-16 09:35:00
4:55 AM,44.6,33.8,66,30.27,10.0,North,10.4,-,N/A,,Overcast,10,2012-11-16 09:55:00
5:15 AM,44.6,33.8,66,30.26,10.0,North,12.7,18.4,N/A,,Overcast,10,2012-11-16 10:15:00
5:35 AM,44.6,35.6,71,30.27,10.0,North,13.8,17.3,N/A,,Overcast,10,2012-11-16 10:35:00
5:56 AM,44.6,35.6,71,30.27,10.0,NNE,12.7,17.3,N/A,,Overcast,20,2012-11-16 10:56:00
6:15 AM,44.6,33.8,66,30.27,10.0,NNE,11.5,19.6,N/A,,Overcast,30,2012-11-16 11:15:00
6:35 AM,44.6,33.8,66,30.28,10.0,NNE,12.7,17.3,N/A,,Overcast,30,2012-11-16 11:35:00
6:55 AM,42.8,35.6,76,30.28,10.0,NNE,16.1,19.6,N/A,,Overcast,30,2012-11-16 11:55:00
7:15 AM,44.6,35.6,71,30.28,10.0,NNE,10.4,18.4,N/A,,Overcast,20,2012-11-16 12:15:00
8:15 AM,44.6,33.8,66,30.30,10.0,NNE,11.5,17.3,N/A,,Mostly Cloudy,20,2012-11-16 13:15:00
8:35 AM,44.6,35.6,71,30.30,10.0,NNE,12.7,16.1,N/A,,Mostly Cloudy,20,2012-11-16 13:35:00
9:15 AM,44.6,33.8,66,30.30,10.0,NNE,12.7,-,N/A,,Scattered Clouds,30,2012-11-16 14:15:00
9:35 AM,46.4,35.6,66,30.31,10.0,NNE,9.2,16.1,N/A,,Mostly Cloudy,20,2012-11-16 14:35:00
9:55 AM,44.6,35.6,71,30.31,10.0,North,9.2,-,N/A,,Overcast,10,2012-11-16 14:55:00
10:15 AM,44.6,35.6,71,30.31,10.0,North,15.0,18.4,N/A,,Overcast,10,2012-11-16 15:15:00
10:35 AM,44.6,35.6,71,30.31,10.0,NNE,15.0,20.7,N/A,,Overcast,20,2012-11-16 15:35:00
10:55 AM,46.4,35.6,66,30.31,10.0,NNE,11.5,17.3,N/A,,Mostly Cloudy,20,2012-11-16 15:55:00
11:15 AM,46.4,35.6,66,30.30,10.0,NNE,10.4,-,N/A,,Overcast,20,2012-11-16 16:15:00
11:35 AM,44.6,35.6,71,30.29,10.0,North,12.7,17.3,N/A,,Overcast,10,2012-11-16 16:35:00
11:55 AM,44.6,35.6,71,30.29,10.0,North,12.7,17.3,N/A,,Mostly Cloudy,10,2012-11-16 16:55:00
12:15 PM,44.6,35.6,71,30.28,10.0,North,12.7,-,N/A,,Overcast,10,2012-11-16 17:15:00
12:35 PM,44.6,33.8,66,30.29,10.0,North,11.5,16.1,N/A,,Overcast,10,2012-11-16 17:35:00
12:55 PM,44.6,35.6,71,30.29,10.0,NNE,12.7,-,N/A,,Mostly Cloudy,20,2012-11-16 17:55:00
1:15 PM,44.6,33.8,66,30.29,10.0,North,12.7,-,N/A,,Mostly Cloudy,10,2012-11-16 18:15:00
1:55 PM,44.6,35.6,71,30.29,10.0,NNE,11.5,16.1,N/A,,Overcast,20,2012-11-16 18:55:00
2:15 PM,44.6,33.8,66,30.30,10.0,NNE,10.4,-,N/A,,Overcast,20,2012-11-16 19:15:00
2:55 PM,44.6,33.8,66,30.31,10.0,North,9.2,-,N/A,,Overcast,10,2012-11-16 19:55:00
3:15 PM,44.6,33.8,66,30.31,10.0,North,9.2,-,N/A,,Overcast,360,2012-11-16 20:15:00
3:35 PM,42.8,33.8,70,30.31,10.0,NNE,10.4,-,N/A,,Overcast,20,2012-11-16 20:35:00
3:55 PM,42.8,33.8,70,30.31,10.0,NNE,11.5,-,N/A,,Overcast,30,2012-11-16 20:55:00
4:15 PM,42.8,33.8,70,30.31,10.0,North,10.4,-,N/A,,Overcast,10,2012-11-16 21:15:00
4:35 PM,42.8,35.6,76,30.32,10.0,North,10.4,-,N/A,,Overcast,10,2012-11-16 21:35:00
4:55 PM,42.8,33.8,70,30.32,10.0,NNE,10.4,16.1,N/A,,Mostly Cloudy,20,2012-11-16 21:55:00
5:15 PM,42.8,35.6,76,30.32,10.0,North,11.5,-,N/A,,Mostly Cloudy,10,2012-11-16 22:15:00
5:35 PM,42.8,33.8,70,30.33,10.0,North,12.7,-,N/A,,Mostly Cloudy,10,2012-11-16 22:35:00
5:56 PM,42.8,35.6,76,30.34,10.0,North,11.5,-,N/A,,Overcast,360,2012-11-16 22:56:00
6:15 PM,42.8,35.6,76,30.34,10.0,North,10.4,-,N/A,,Mostly Cloudy,360,2012-11-16 23:15:00
6:55 PM,42.8,32.0,66,30.35,10.0,North,8.1,-,N/A,,Partly Cloudy,10,2012-11-16 23:55:00
7:15 PM,42.8,33.8,70,30.34,10.0,North,11.5,-,N/A,,Partly Cloudy,360,2012-11-17 00:15:00
7:35 PM,42.8,33.8,70,30.35,10.0,North,11.5,-,N/A,,Partly Cloudy,360,2012-11-17 00:35:00
7:55 PM,42.8,33.8,70,30.36,10.0,North,11.5,-,N/A,,Clear,350,2012-11-17 00:55:00
8:15 PM,42.8,33.8,70,30.36,10.0,North,9.2,-,N/A,,Clear,10,2012-11-17 01:15:00
8:35 PM,44.6,33.8,66,30.37,10.0,North,10.4,-,N/A,,Clear,10,2012-11-17 01:35:00
9:15 PM,44.6,32.0,61,30.37,10.0,North,10.4,-,N/A,,Clear,10,2012-11-17 02:15:00
9:35 PM,44.6,32.0,61,30.38,10.0,North,10.4,-,N/A,,Clear,10,2012-11-17 02:35:00
9:56 PM,44.6,32.0,61,30.38,10.0,North,10.4,-,N/A,,Clear,10,2012-11-17 02:56:00
11:15 PM,44.6,33.8,66,30.40,10.0,NNE,11.5,-,N/A,,Clear,20,2012-11-17 04:15:00